Time,TemperatureF,DewpointF,PressureIn,WindDirection,WindDirectionDegrees,WindSpeedMPH,WindSpeedGustMPH,Humidity,HourlyPrecipIn,Conditions,Clouds,dailyrainin,SoftwareType,DateUTC
2013-01-12 00:02:00,37.0,36.0,-100.00,SSW,195,2.0,6.0,98,0.00,,,-99.99,,2013-01-12 06:02:00,
2013-01-12 00:12:00,37.0,36.0,-100.00,SW,220,2.0,4.0,98,0.00,,,-99.99,,2013-01-12 06:12:00,
2013-01-12 00:22:00,36.0,36.0,-100.00,SW,215,2.0,4.0,98,0.00,,,-99.99,,2013-01-12 06:22:00,
2013-01-12 00:32:00,38.0,37.0,-100.00,WSW,240,9.0,12.0,98,0.00,,,-99.99,,2013-01-12 06:32:00,
2013-01-12 00:42:00,38.0,37.0,-100.00,WSW,240,9.0,12.0,98,0.00,,,-99.99,,2013-01-12 06:42:00,
2013-01-12 00:52:00,37.0,37.0,-100.00,WSW,245,9.0,13.0,98,0.00,,,-99.99,,2013-01-12 06:52:00,
2013-01-12 01:02:00,37.0,37.0,-100.00,WSW,245,9.0,13.0,98,0.00,,,-99.99,,2013-01-12 07:02:00,
2013-01-12 01:12:00,37.0,37.0,-100.00,WSW,245,9.0,13.0,98,0.00,,,-99.99,,2013-01-12 07:12:00,
2013-01-12 01:22:00,33.0,33.0,-100.00,West,265,14.0,26.0,98,0.00,,,-99.99,,2013-01-12 07:22:00,
2013-01-12 01:32:00,33.0,33.0,-100.00,West,265,14.0,26.0,98,0.00,,,-99.99,,2013-01-12 07:32:00,
2013-01-12 01:42:00,32.0,31.0,-100.00,WSW,240,7.0,16.0,98,0.00,,,-99.99,,2013-01-12 07:42:00,
2013-01-12 01:52:00,31.0,31.0,-100.00,WSW,245,13.0,24.0,98,0.00,,,-99.99,,2013-01-12 07:52:00,
2013-01-12 02:02:00,31.0,31.0,-100.00,WSW,245,13.0,24.0,98,0.00,,,-99.99,,2013-01-12 08:02:00,
2013-01-12 02:12:00,31.0,30.0,-100.00,WSW,245,16.0,31.0,98,0.00,,,-99.99,,2013-01-12 08:12:00,
2013-01-12 02:22:00,30.0,29.0,-100.00,WSW,255,21.0,29.0,98,0.00,,,-99.99,,2013-01-12 08:22:00,
2013-01-12 02:32:00,29.0,28.0,-100.00,WSW,255,21.0,35.0,97,0.00,,,-99.99,,2013-01-12 08:32:00,
2013-01-12 02:42:00,28.0,28.0,-100.00,West,270,19.0,33.0,97,0.00,,,-99.99,,2013-01-12 08:42:00,
2013-01-12 02:52:00,28.0,28.0,-100.00,West,270,19.0,33.0,97,0.00,,,-99.99,,2013-01-12 08:52:00,
2013-01-12 03:02:00,27.0,26.0,-100.00,WSW,245,22.0,31.0,97,0.00,,,-99.99,,2013-01-12 09:02:00,
2013-01-12 03:12:00,27.0,26.0,-100.00,West,265,20.0,30.0,96,0.00,,,-99.99,,2013-01-12 09:12:00,
2013-01-12 03:22:00,27.0,26.0,-100.00,West,265,20.0,30.0,96,0.00,,,-99.99,,2013-01-12 09:22:00,
2013-01-12 03:32:00,27.0,26.0,-100.00,West,265,20.0,30.0,96,0.00,,,-99.99,,2013-01-12 09:32:00,
2013-01-12 03:42:00,25.0,24.0,-100.00,WSW,245,21.0,30.0,93,0.00,,,-99.99,,2013-01-12 09:42:00,
2013-01-12 03:52:00,25.0,23.0,-100.00,West,260,21.0,32.0,93,0.00,,,-99.99,,2013-01-12 09:52:00,
2013-01-12 04:02:00,24.0,22.0,-100.00,WSW,245,20.0,29.0,91,0.00,,,-99.99,,2013-01-12 10:02:00,
2013-01-12 04:12:00,24.0,22.0,-100.00,WSW,245,20.0,29.0,91,0.00,,,-99.99,,2013-01-12 10:12:00,
2013-01-12 04:22:00,24.0,21.0,-100.00,West,275,16.0,34.0,86,0.00,,,-99.99,,2013-01-12 10:22:00,
2013-01-12 04:32:00,24.0,21.0,-100.00,West,275,16.0,34.0,86,0.00,,,-99.99,,2013-01-12 10:32:00,
2013-01-12 04:42:00,24.0,21.0,-100.00,West,275,16.0,34.0,86,0.00,,,-99.99,,2013-01-12 10:42:00,
2013-01-12 04:52:00,23.0,18.0,-100.00,West,270,15.0,30.0,81,0.00,,,-99.99,,2013-01-12 10:52:00,
2013-01-12 05:02:00,22.0,16.0,-100.00,West,260,16.0,32.0,79,0.00,,,-99.99,,2013-01-12 11:02:00,
2013-01-12 05:12:00,21.0,15.0,-100.00,WSW,255,20.0,31.0,76,0.00,,,-99.99,,2013-01-12 11:12:00,
2013-01-12 05:22:00,20.0,14.0,-100.00,West,265,19.0,32.0,75,0.00,,,-99.99,,2013-01-12 11:22:00,
2013-01-12 05:32:00,20.0,13.0,-100.00,WSW,250,17.0,30.0,75,0.00,,,-99.99,,2013-01-12 11:32:00,
2013-01-12 05:42:00,19.0,13.0,-100.00,WSW,250,18.0,27.0,74,0.00,,,-99.99,,2013-01-12 11:42:00,
2013-01-12 05:52:00,19.0,13.0,-100.00,WSW,250,18.0,27.0,74,0.00,,,-99.99,,2013-01-12 11:52:00,
2013-01-12 06:02:00,19.0,11.0,-100.00,West,270,20.0,32.0,70,0.00,,,-99.99,,2013-01-12 12:02:00,
2013-01-12 06:12:00,18.0,10.0,-100.00,West,265,19.0,32.0,70,0.00,,,-99.99,,2013-01-12 12:12:00,
2013-01-12 06:22:00,17.0,9.0,-100.00,West,265,17.0,32.0,69,0.00,,,-99.99,,2013-01-12 12:22:00,
2013-01-12 06:32:00,17.0,9.0,-100.00,West,265,17.0,32.0,69,0.00,,,-99.99,,2013-01-12 12:32:00,
2013-01-12 06:52:00,16.0,7.0,-100.00,West,270,17.0,34.0,67,0.00,,,-99.99,,2013-01-12 12:52:00,
2013-01-12 07:02:00,16.0,7.0,-100.00,West,275,21.0,34.0,67,0.00,,,-99.99,,2013-01-12 13:02:00,
2013-01-12 07:12:00,16.0,7.0,-100.00,West,270,16.0,26.0,67,0.00,,,-99.99,,2013-01-12 13:12:00,
2013-01-12 07:22:00,16.0,8.0,-100.00,West,270,16.0,24.0,68,0.00,,,-99.99,,2013-01-12 13:22:00,
2013-01-12 07:33:00,16.0,7.0,-100.00,West,260,17.0,32.0,68,0.00,,,-99.99,,2013-01-12 13:33:00,
2013-01-12 07:42:00,15.0,7.0,-100.00,West,270,17.0,26.0,68,0.00,,,-99.99,,2013-01-12 13:42:00,
2013-01-12 07:52:00,15.0,6.0,-100.00,West,270,17.0,30.0,67,0.00,,,-99.99,,2013-01-12 13:52:00,
2013-01-12 08:02:00,15.0,6.0,-100.00,West,275,21.0,27.0,67,0.00,,,-99.99,,2013-01-12 14:02:00,
2013-01-12 08:12:00,14.0,5.0,-100.00,West,275,20.0,30.0,66,0.00,,,-99.99,,2013-01-12 14:12:00,
2013-01-12 08:22:00,15.0,6.0,-100.00,West,280,15.0,26.0,67,0.00,,,-99.99,,2013-01-12 14:22:00,
2013-01-12 08:33:00,14.0,5.0,-100.00,West,280,24.0,32.0,66,0.00,,,-99.99,,2013-01-12 14:33:00,
2013-01-12 08:43:00,14.0,5.0,-100.00,West,280,22.0,31.0,65,0.00,,,-99.99,,2013-01-12 14:43:00,
2013-01-12 08:53:00,15.0,5.0,-100.00,West,275,20.0,31.0,65,0.00,,,-99.99,,2013-01-12 14:53:00,
2013-01-12 09:03:00,15.0,6.0,-100.00,West,275,16.0,28.0,67,0.00,,,-99.99,,2013-01-12 15:03:00,
2013-01-12 09:12:00,15.0,6.0,-100.00,West,280,20.0,26.0,66,0.00,,,-99.99,,2013-01-12 15:12:00,
2013-01-12 09:22:00,15.0,6.0,-100.00,West,280,21.0,27.0,65,0.00,,,-99.99,,2013-01-12 15:22:00,
2013-01-12 09:33:00,16.0,6.0,-100.00,West,280,17.0,24.0,65,0.00,,,-99.99,,2013-01-12 15:33:00,
2013-01-12 09:43:00,16.0,6.0,-100.00,West,280,17.0,24.0,65,0.00,,,-99.99,,2013-01-12 15:43:00,
2013-01-12 09:52:00,16.0,6.0,-100.00,West,280,17.0,24.0,65,0.00,,,-99.99,,2013-01-12 15:52:00,
2013-01-12 10:03:00,16.0,6.0,-100.00,West,280,17.0,24.0,65,0.00,,,-99.99,,2013-01-12 16:03:00,
2013-01-12 10:12:00,17.0,7.0,-100.00,West,280,16.0,23.0,65,0.00,,,-99.99,,2013-01-12 16:12:00,
2013-01-12 10:23:00,17.0,7.0,-100.00,West,280,18.0,23.0,65,0.00,,,-99.99,,2013-01-12 16:23:00,
2013-01-12 10:33:00,16.0,6.0,-100.00,West,260,14.0,24.0,63,0.00,,,-99.99,,2013-01-12 16:33:00,
2013-01-12 10:42:00,16.0,5.0,-100.00,West,270,14.0,26.0,62,0.00,,,-99.99,,2013-01-12 16:42:00,
2013-01-12 10:52:00,16.0,6.0,-100.00,West,275,17.0,24.0,61,0.00,,,-99.99,,2013-01-12 16:52:00,
2013-01-12 11:02:00,16.0,6.0,-100.00,West,275,17.0,24.0,61,0.00,,,-99.99,,2013-01-12 17:02:00,
2013-01-12 11:12:00,16.0,5.0,-100.00,WSW,255,16.0,22.0,61,0.00,,,-99.99,,2013-01-12 17:12:00,
2013-01-12 11:22:00,17.0,6.0,-100.00,West,260,14.0,21.0,61,0.00,,,-99.99,,2013-01-12 17:22:00,
2013-01-12 11:33:00,17.0,5.0,-100.00,West,265,17.0,27.0,60,0.00,,,-99.99,,2013-01-12 17:33:00,
2013-01-12 11:42:00,17.0,5.0,-100.00,West,270,19.0,26.0,59,0.00,,,-99.99,,2013-01-12 17:42:00,
2013-01-12 11:53:00,17.0,5.0,-100.00,West,270,15.0,27.0,60,0.00,,,-99.99,,2013-01-12 17:53:00,
2013-01-12 12:03:00,17.0,5.0,-100.00,West,270,15.0,27.0,60,0.00,,,-99.99,,2013-01-12 18:03:00,
2013-01-12 12:12:00,16.0,5.0,-100.00,West,275,19.0,24.0,61,0.00,,,-99.99,,2013-01-12 18:12:00,
2013-01-12 12:22:00,17.0,6.0,-100.00,West,275,16.0,25.0,60,0.00,,,-99.99,,2013-01-12 18:22:00,
2013-01-12 12:33:00,17.0,6.0,-100.00,West,270,14.0,21.0,60,0.00,,,-99.99,,2013-01-12 18:33:00,
2013-01-12 12:42:00,17.0,6.0,-100.00,West,280,19.0,26.0,60,0.00,,,-99.99,,2013-01-12 18:42:00,
2013-01-12 12:52:00,17.0,6.0,-100.00,West,280,15.0,21.0,60,0.00,,,-99.99,,2013-01-12 18:52:00,
2013-01-12 13:03:00,17.0,6.0,-100.00,West,280,17.0,24.0,60,0.00,,,-99.99,,2013-01-12 19:03:00,
2013-01-12 13:12:00,17.0,6.0,-100.00,West,280,15.0,26.0,61,0.00,,,-99.99,,2013-01-12 19:12:00,
2013-01-12 13:23:00,17.0,6.0,-100.00,West,280,15.0,26.0,61,0.00,,,-99.99,,2013-01-12 19:23:00,
2013-01-12 13:33:00,17.0,6.0,-100.00,WNW,285,16.0,21.0,62,0.00,,,-99.99,,2013-01-12 19:33:00,
2013-01-12 13:43:00,17.0,6.0,-100.00,WNW,285,16.0,21.0,62,0.00,,,-99.99,,2013-01-12 19:43:00,
2013-01-12 13:52:00,17.0,8.0,-100.00,West,275,15.0,21.0,64,0.00,,,-99.99,,2013-01-12 19:52:00,
2013-01-12 14:03:00,18.0,8.0,-100.00,West,275,18.0,24.0,65,0.00,,,-99.99,,2013-01-12 20:03:00,
2013-01-12 14:12:00,18.0,8.0,-100.00,West,275,18.0,24.0,65,0.00,,,-99.99,,2013-01-12 20:12:00,
2013-01-12 14:22:00,18.0,8.0,-100.00,West,280,15.0,23.0,64,0.00,,,-99.99,,2013-01-12 20:22:00,
2013-01-12 14:32:00,17.0,7.0,-100.00,West,280,17.0,22.0,62,0.00,,,-99.99,,2013-01-12 20:32:00,
2013-01-12 14:42:00,18.0,7.0,-100.00,West,280,17.0,23.0,62,0.00,,,-99.99,,2013-01-12 20:42:00,
2013-01-12 14:53:00,17.0,7.0,-100.00,WNW,290,16.0,21.0,64,0.00,,,-99.99,,2013-01-12 20:53:00,
2013-01-12 15:03:00,18.0,8.0,-100.00,WNW,290,16.0,21.0,64,0.00,,,-99.99,,2013-01-12 21:03:00,
2013-01-12 15:12:00,16.0,6.0,-100.00,WNW,285,18.0,24.0,64,0.00,,,-99.99,,2013-01-12 21:12:00,
2013-01-12 15:22:00,16.0,6.0,-100.00,WNW,285,13.0,23.0,64,0.00,,,-99.99,,2013-01-12 21:22:00,
2013-01-12 15:33:00,15.0,5.0,-100.00,WNW,290,16.0,26.0,63,0.00,,,-99.99,,2013-01-12 21:33:00,
2013-01-12 15:43:00,16.0,6.0,-100.00,WNW,290,17.0,21.0,62,0.00,,,-99.99,,2013-01-12 21:43:00,
2013-01-12 15:52:00,16.0,5.0,-100.00,West,275,14.0,21.0,61,0.00,,,-99.99,,2013-01-12 21:52:00,
2013-01-12 16:02:00,16.0,5.0,-100.00,WNW,290,12.0,20.0,62,0.00,,,-99.99,,2013-01-12 22:02:00,
2013-01-12 16:12:00,15.0,5.0,-100.00,West,270,9.0,14.0,62,0.00,,,-99.99,,2013-01-12 22:12:00,
2013-01-12 16:22:00,15.0,5.0,-100.00,WNW,290,16.0,19.0,63,0.00,,,-99.99,,2013-01-12 22:22:00,
2013-01-12 16:33:00,15.0,5.0,-100.00,WNW,290,16.0,19.0,63,0.00,,,-99.99,,2013-01-12 22:33:00,
2013-01-12 16:43:00,15.0,4.0,-100.00,WNW,290,14.0,19.0,63,0.00,,,-99.99,,2013-01-12 22:43:00,
2013-01-12 16:52:00,14.0,3.0,-100.00,West,280,15.0,19.0,62,0.00,,,-99.99,,2013-01-12 22:52:00,
2013-01-12 17:02:00,14.0,4.0,-100.00,WNW,285,9.0,16.0,62,0.00,,,-99.99,,2013-01-12 23:02:00,
2013-01-12 17:12:00,14.0,4.0,-100.00,West,280,13.0,16.0,62,0.00,,,-99.99,,2013-01-12 23:12:00,
2013-01-12 17:22:00,14.0,4.0,-100.00,WNW,290,12.0,17.0,64,0.01,,,-99.99,,2013-01-12 23:22:00,
2013-01-12 17:33:00,14.0,4.0,-100.00,WNW,290,12.0,17.0,64,0.01,,,-99.99,,2013-01-12 23:33:00,
2013-01-12 17:43:00,14.0,4.0,-100.00,WNW,290,13.0,16.0,66,0.00,,,-99.99,,2013-01-12 23:43:00,
2013-01-12 17:53:00,13.0,4.0,-100.00,WNW,290,11.0,17.0,65,0.00,,,-99.99,,2013-01-12 23:53:00,
2013-01-12 18:03:00,13.0,3.0,-100.00,West,280,12.0,18.0,64,0.00,,,-99.99,,2013-01-13 00:03:00,
2013-01-12 18:12:00,13.0,3.0,-100.00,West,280,12.0,18.0,64,0.00,,,-99.99,,2013-01-13 00:12:00,
2013-01-12 18:22:00,13.0,4.0,-100.00,West,280,12.0,15.0,65,0.00,,,-99.99,,2013-01-13 00:22:00,
2013-01-12 18:33:00,13.0,4.0,-100.00,West,280,12.0,15.0,65,0.00,,,-99.99,,2013-01-13 00:33:00,
2013-01-12 18:43:00,13.0,4.0,-100.00,WNW,290,12.0,16.0,67,0.00,,,-99.99,,2013-01-13 00:43:00,
2013-01-12 18:53:00,13.0,4.0,-100.00,WNW,290,13.0,16.0,66,0.00,,,-99.99,,2013-01-13 00:53:00,
2013-01-12 19:02:00,12.0,4.0,-100.00,WNW,285,12.0,17.0,69,0.00,,,-99.99,,2013-01-13 01:02:00,
2013-01-12 19:12:00,12.0,4.0,-100.00,WNW,285,9.0,16.0,68,0.00,,,-99.99,,2013-01-13 01:12:00,
2013-01-12 19:22:00,12.0,4.0,-100.00,WNW,285,9.0,16.0,68,0.00,,,-99.99,,2013-01-13 01:22:00,
2013-01-12 19:32:00,12.0,4.0,-100.00,WNW,300,11.0,15.0,68,0.00,,,-99.99,,2013-01-13 01:32:00,
2013-01-12 19:43:00,12.0,3.0,-100.00,NW,305,14.0,16.0,67,0.00,,,-99.99,,2013-01-13 01:43:00,
2013-01-12 19:52:00,12.0,3.0,-100.00,WNW,285,11.0,17.0,67,0.00,,,-99.99,,2013-01-13 01:52:00,
2013-01-12 20:02:00,12.0,3.0,-100.00,WNW,290,9.0,15.0,68,0.00,,,-99.99,,2013-01-13 02:02:00,
2013-01-12 20:12:00,12.0,3.0,-100.00,WNW,290,9.0,15.0,68,0.00,,,-99.99,,2013-01-13 02:12:00,
2013-01-12 20:22:00,12.0,3.0,-100.00,West,280,9.0,12.0,68,0.00,,,-99.99,,2013-01-13 02:22:00,
2013-01-12 20:32:00,11.0,3.0,-100.00,WSW,255,11.0,12.0,69,0.00,,,-99.99,,2013-01-13 02:32:00,
2013-01-12 20:42:00,11.0,4.0,-100.00,WNW,300,12.0,16.0,69,0.00,,,-99.99,,2013-01-13 02:42:00,
2013-01-12 20:53:00,11.0,4.0,-100.00,WNW,300,12.0,16.0,69,0.00,,,-99.99,,2013-01-13 02:53:00,
2013-01-12 21:02:00,11.0,3.0,-100.00,NW,305,12.0,17.0,70,0.00,,,-99.99,,2013-01-13 03:02:00,
2013-01-12 21:12:00,11.0,3.0,-100.00,NW,320,11.0,15.0,69,0.00,,,-99.99,,2013-01-13 03:12:00,
2013-01-12 21:22:00,11.0,3.0,-100.00,WSW,245,12.0,16.0,69,0.00,,,-99.99,,2013-01-13 03:22:00,
2013-01-12 21:33:00,11.0,3.0,-100.00,WNW,285,14.0,17.0,69,0.00,,,-99.99,,2013-01-13 03:33:00,
2013-01-12 21:42:00,10.0,3.0,-100.00,WSW,250,12.0,16.0,70,0.00,,,-99.99,,2013-01-13 03:42:00,
2013-01-12 21:52:00,10.0,2.0,-100.00,NW,310,13.0,17.0,70,0.00,,,-99.99,,2013-01-13 03:52:00,
2013-01-12 22:02:00,10.0,2.0,-100.00,NW,305,14.0,17.0,70,0.00,,,-99.99,,2013-01-13 04:02:00,
2013-01-12 22:12:00,10.0,2.0,-100.00,West,260,14.0,17.0,70,0.00,,,-99.99,,2013-01-13 04:12:00,
2013-01-12 22:22:00,10.0,2.0,-100.00,WSW,255,12.0,15.0,70,0.00,,,-99.99,,2013-01-13 04:22:00,
2013-01-12 22:33:00,10.0,2.0,-100.00,NW,305,12.0,15.0,70,0.00,,,-99.99,,2013-01-13 04:33:00,
2013-01-12 22:42:00,9.0,2.0,-100.00,NW,310,13.0,16.0,69,0.00,,,-99.99,,2013-01-13 04:42:00,
2013-01-12 22:52:00,9.0,1.0,-100.00,NW,310,12.0,17.0,68,0.00,,,-99.99,,2013-01-13 04:52:00,
2013-01-12 23:03:00,9.0,1.0,-100.00,West,265,14.0,17.0,68,0.00,,,-99.99,,2013-01-13 05:03:00,
2013-01-12 23:12:00,9.0,1.0,-100.00,West,265,14.0,17.0,68,0.00,,,-99.99,,2013-01-13 05:12:00,
2013-01-12 23:22:00,9.0,1.0,-100.00,West,265,14.0,17.0,68,0.00,,,-99.99,,2013-01-13 05:22:00,
2013-01-12 23:32:00,9.0,0.0,-100.00,West,270,12.0,20.0,68,0.00,,,-99.99,,2013-01-13 05:32:00,
2013-01-12 23:42:00,8.0,0.0,-100.00,West,280,14.0,19.0,68,0.00,,,-99.99,,2013-01-13 05:42:00,
2013-01-12 23:53:00,8.0,0.0,-100.00,WSW,240,14.0,21.0,68,0.00,,,-99.99,,2013-01-13 05:53:00,